Location: �terpigny
(49.8910°N, 2.9249°E)
Time: 04:45:57
(UTC+00:00)

Cosmos 614 Rocket - Pass Details

Date: 02 June 2022
Orbit: 732 x 764 km, 74.1° (Epoch: 05 July)

Event Time Altitude Azimuth Distance (km) Brightness Sun altitude
Rises 23:32:27 0° 340° (NNW) 3,223 8.7 -17.8°
Reaches altitude 10° 23:34:58 10° 348° (NNW) 2,298 7.7 -17.8°
Maximum altitude 23:39:52 40° 57° (ENE) 1,122 5.1 -17.8°
Enters shadow 23:44:09 13° 124° (SE) 2,083 5.9 -17.8°
